BRG15 LJLJ-ZZZZ

Flight info

Callsign BRG15
Flight time N/A
Altitude 9449
Route DCT
Aircraft TBM/L-VGD/A

Departure

Time 2026-05-04 17:46
Airport Ljubljana Jože Pučnik Airport (LJLJ)

Arrival

Time N/A
Airport ZZZZ
Time Latitude Longitude Altitude Speed Heading
2026-05-04 17:35 46.22667 14.46050 1246 ft 0 kts 306°
2026-05-04 17:41 46.22680 14.46019 1248 ft 9 kts 286°
2026-05-04 17:42 46.22698 14.45933 1242 ft 11 kts 304°
2026-05-04 17:42 46.22712 14.45879 1246 ft 6 kts 242°
2026-05-04 17:42 46.22681 14.45840 1243 ft 7 kts 221°
2026-05-04 17:42 46.22630 14.45784 1243 ft 13 kts 217°
2026-05-04 17:43 46.22572 14.45838 1250 ft 13 kts 123°
2026-05-04 17:43 46.22478 14.46014 1243 ft 39 kts 127°
2026-05-04 17:43 46.22291 14.46380 1228 ft 47 kts 130°
2026-05-04 17:43 46.22096 14.46766 1219 ft 48 kts 127°
2026-05-04 17:44 46.21926 14.47094 1211 ft 40 kts 125°
2026-05-04 17:44 46.21764 14.47411 1204 ft 32 kts 127°
2026-05-04 17:44 46.21644 14.47613 1198 ft 15 kts 184°
2026-05-04 17:44 46.21624 14.47603 1198 ft 0 kts 209°
2026-05-04 17:45 46.21564 14.47547 1198 ft 15 kts 213°
2026-05-04 17:45 46.21528 14.47414 1198 ft 15 kts 299°
2026-05-04 17:45 46.21553 14.47361 1200 ft 0 kts 306°
2026-05-04 17:45 46.21568 14.47331 1201 ft 20 kts 307°
2026-05-04 17:46 46.21752 14.46969 1212 ft 66 kts 310°
2026-05-04 17:46 46.22089 14.46342 1289 ft 87 kts 301°
2026-05-04 17:46 46.22470 14.45529 1601 ft 103 kts 297°
2026-05-04 17:46 46.22888 14.44593 1948 ft 122 kts 299°
2026-05-04 17:47 46.23354 14.43523 2403 ft 129 kts 296°
2026-05-04 17:47 46.23795 14.42375 2900 ft 129 kts 294°
2026-05-04 17:47 46.24238 14.41251 3461 ft 129 kts 294°
2026-05-04 17:47 46.24685 14.40152 4077 ft 125 kts 294°
2026-05-04 17:48 46.25138 14.39049 4602 ft 130 kts 293°
2026-05-04 17:48 46.25640 14.37881 5060 ft 142 kts 297°
2026-05-04 17:48 46.26226 14.36710 5619 ft 146 kts 301°
2026-05-04 17:48 46.26803 14.35518 6169 ft 143 kts 285°
2026-05-04 17:49 46.26789 14.34115 6585 ft 138 kts 246°
2026-05-04 17:49 46.26149 14.33045 6715 ft 147 kts 212°
2026-05-04 17:49 46.25117 14.33261 6795 ft 170 kts 153°
2026-05-04 17:49 46.24277 14.34395 7125 ft 155 kts 139°
2026-05-04 17:50 46.23662 14.35609 7460 ft 155 kts 130°
2026-05-04 17:50 46.23016 14.36858 7886 ft 150 kts 135°
2026-05-04 17:50 46.22328 14.37981 8248 ft 152 kts 140°
2026-05-04 17:50 46.21592 14.39178 8538 ft 159 kts 137°
2026-05-04 17:51 46.20845 14.40440 8715 ft 174 kts 138°
2026-05-04 17:51 46.19997 14.41676 9108 ft 168 kts 139°
2026-05-04 17:51 46.19200 14.42993 9190 ft 181 kts 135°
2026-05-04 17:51 46.18374 14.44395 9241 ft 183 kts 135°
2026-05-04 17:52 46.17592 14.45805 9453 ft 180 kts 130°
2026-05-04 17:52 46.16853 14.47264 9533 ft 183 kts 128°
2026-05-04 17:52 46.16309 14.48961 9644 ft 184 kts 121°
2026-05-04 17:52 46.15863 14.50597 9991 ft 177 kts 99°
2026-05-04 17:53 46.16247 14.52442 9597 ft 212 kts 53°
2026-05-04 17:53 46.17481 14.53587 9476 ft 215 kts 14°
2026-05-04 17:53 46.18941 14.53587 9480 ft 206 kts 342°
2026-05-04 17:53 46.20156 14.52697 9644 ft 191 kts 316°
2026-05-04 17:54 46.21077 14.51378 9864 ft 177 kts 301°
2026-05-04 17:54 46.21698 14.49910 10085 ft 170 kts 302°
2026-05-04 17:54 46.22429 14.48573 10303 ft 164 kts 299°
2026-05-04 17:54 46.22967 14.47118 10377 ft 171 kts 294°
2026-05-04 17:55 46.23519 14.45512 10307 ft 180 kts 293°
2026-05-04 17:55 46.24066 14.43941 10226 ft 168 kts 288°
2026-05-04 17:55 46.23762 14.42526 9849 ft 151 kts 218°
2026-05-04 17:55 46.22862 14.41782 9085 ft 162 kts 201°
2026-05-04 17:56 46.21703 14.41853 8328 ft 176 kts 168°
2026-05-04 17:56 46.20554 14.42731 7284 ft 197 kts 148°
2026-05-04 17:56 46.19468 14.44032 6035 ft 215 kts 145°
2026-05-04 17:56 46.18178 14.45588 4559 ft 249 kts 143°
2026-05-04 17:57 46.17106 14.47386 4062 ft 233 kts 123°
2026-05-04 17:57 46.16518 14.49387 3905 ft 204 kts 114°
2026-05-04 17:57 46.16305 14.51369 3526 ft 196 kts 96°
2026-05-04 17:57 46.16643 14.53053 3488 ft 168 kts 50°
2026-05-04 17:58 46.17499 14.53961 3435 ft 143 kts 16°
2026-05-04 17:58 46.18445 14.53818 3444 ft 139 kts 315°
2026-05-04 17:58 46.19102 14.52644 2947 ft 172 kts 299°
2026-05-04 17:58 46.19531 14.51688 2558 ft 167 kts 298°
2026-05-04 17:59 46.20123 14.50262 1992 ft 160 kts 297°
2026-05-04 17:59 46.20719 14.48897 1699 ft 154 kts 307°
2026-05-04 17:59 46.21994 14.46513 1253 ft 134 kts 302°
2026-05-04 18:00 46.22554 14.45366 1703 ft 135 kts 301°
2026-05-04 18:00 46.23184 14.44200 1982 ft 160 kts 307°
2026-05-04 18:00 46.23885 14.42904 2484 ft 164 kts 302°
2026-05-04 18:00 46.24165 14.41581 3501 ft 125 kts 253°
2026-05-04 18:01 46.23499 14.41064 4067 ft 137 kts 168°
2026-05-04 18:01 46.22701 14.42209 4036 ft 189 kts 131°
2026-05-04 18:01 46.21788 14.43767 4083 ft 207 kts 137°
2026-05-04 18:02 46.20050 14.46841 4087 ft 184 kts 136°
2026-05-04 18:02 46.19224 14.48150 3888 ft 170 kts 137°
2026-05-04 18:02 46.18547 14.49495 3678 ft 161 kts 116°
2026-05-04 18:02 46.18625 14.51116 3134 ft 179 kts 65°
2026-05-04 18:03 46.19505 14.52177 2804 ft 151 kts 352°
2026-05-04 18:03 46.20201 14.51391 2341 ft 133 kts 293°
2026-05-04 18:03 46.20543 14.50102 1973 ft 132 kts 286°
2026-05-04 18:03 46.20789 14.49081 1629 ft 100 kts 294°
2026-05-04 18:04 46.21171 14.48206 1401 ft 106 kts 300°
2026-05-04 18:04 46.21551 14.47387 1242 ft 87 kts 302°
2026-05-04 18:04 46.22075 14.46312 1227 ft 36 kts 309°
2026-05-04 18:05 46.22204 14.46120 1246 ft 22 kts 358°
2026-05-04 18:05 46.22247 14.46125 1234 ft 8 kts 35°
2026-05-04 18:05 46.22302 14.46182 1232 ft 0 kts 38°
2026-05-04 18:06 46.22344 14.46218 1232 ft 15 kts
2026-05-04 18:06 46.22418 14.46131 1236 ft 13 kts 308°
2026-05-04 18:07 46.22474 14.46018 1238 ft 15 kts 308°
2026-05-04 18:07 46.22534 14.45903 1242 ft 13 kts 307°
2026-05-04 18:07 46.22584 14.45805 1242 ft 11 kts 307°
2026-05-04 18:07 46.22638 14.45794 1249 ft 8 kts 42°
2026-05-04 18:08 46.22678 14.45857 1247 ft 9 kts 96°
2026-05-04 18:08 46.22682 14.45903 1252 ft 0 kts 32°